Regional Weather Roundup
Issued by NWS

Home | Current Version | Previous Version | Graphics & Text | Print | Product List | Glossary On
Versions: 1 2 3 4 5 6 7 8 9 10 11 12 13 14 15 16 17 18 19 20 21 22 23 24 25 26 27 28 29 30 31 32 33 34 35 36 37 38 39 40 41 42 43 44 45 46 47 48 49 50
000
ASUS45 KBOU 180610
RWRCO

WEATHER ROUNDUP FOR COLORADO
NATIONAL WEATHER SERVICE DENVER/BOULDER CO
1100 PM MST WED JAN 17 2018

NOTE: "FAIR" INDICATES FEW OR NO CLOUDS BELOW 12000 FEET WITH NO
SIGNIFICANT WEATHER AND/OR OBSTRUCTIONS TO VISIBILITY.

COZ001>005-013-030-031-180700-
...NORTHWEST COLORADO...

CITY           SKY/WX    TMP DP  RH WIND       PRES   REMARKS
CRAIG          FAIR      17   8  67 CALM      30.39R
HAYDEN         FAIR     N/A N/A N/A E14       30.39R
MEEKER         FAIR      22  17  81 VRB3      30.38R
RABBIT EARS PA FAIR      19  18  93 W14G21    30.35S WCI   6
STEAMBOAT SPGS FAIR      15   9  78 CALM      30.39R
WALDEN         FAIR      12   7  79 SE7       30.35R WCI   2
$$

COZ006>008-011-180700-
...WEST CENTRAL VALLEYS...

CITY           SKY/WX    TMP DP  RH WIND       PRES   REMARKS
GRAND JUNCTION FAIR      22  13  68 E3        30.38R
MONTROSE       FAIR      22  13  68 SE8       30.40R WCI  12
EAGLE          FAIR      15   7  70 CALM      30.43R
RIFLE          FAIR      23  15  71 SW5       30.40R WCI  17
DELTA          FAIR      28  13  54 CALM      30.40R
NUCLA          FAIR      28  14  54 CALM      30.40R
$$

COZ017>023-064>068-180700-
...SOUTHWEST COLORADO...

CITY           SKY/WX    TMP DP  RH WIND       PRES   REMARKS
DURANGO        FAIR      19  15  84 CALM      30.33S
CORTEZ         FAIR      20  16  84 E6        30.34S WCI  12
PAGOSA SPRINGS FAIR      22  17  79 CALM      30.34S
TELLURIDE      FAIR      24  10  54 SE7       30.38F WCI  16
WOLF CREEK PAS FAIR      25  -8  24 SW5       30.43F WCI  19
$$

COZ009-010-012-014-032>034-037-058>063-180700-
...CENTRAL COLORADO...

CITY           SKY/WX    TMP DP  RH WIND       PRES   REMARKS
ASPEN          FAIR      19  10  68 S5        30.36S WCI  12
BUENA VISTA    FAIR      21   6  53 NW6       30.32R WCI  13
COPPER MTN     NOT AVBL
BERTHOUD PASS  FAIR      12   1  62 NW23G30   30.34S WCI  -7
COTTONWOOD PAS   N/A     36   3  25 NW3       30.33S
GUNNISON       FAIR       9   3  77 CALM      30.41S
KREMMLING      FAIR      12   5  73 CALM      30.44R
LEADVILLE      FAIR      15   7  70 NE9       30.34S WCI   3
MONARCH PASS   FAIR      19   5  53 W28       30.46S WCI   1
SALIDA         FAIR      28  -2  27 CALM      30.39S
SUNLIGHT       FAIR      23  12  63 W3        30.43R
WILKERSON PASS FAIR      25   0  33 W8        30.35S WCI  16
$$

COZ069>075-180700-
...SAN LUIS VALLEY/SANGRE DE CRISTO MOUNTAINS...

CITY           SKY/WX    TMP DP  RH WIND       PRES   REMARKS
ALAMOSA        FAIR      10  -5  50 W5        30.32S WCI   2
DEL NORTE      FAIR      25  -2  31 W10       30.32S WCI  15
LA VETA PASS   FAIR      27  -6  24 SW24        N/A  WCI  12
SAGUACHE       FAIR      25   7  46 NW12      30.33S WCI  14
$$

COZ035-036-038>040-180700-
...NORTHERN COLORADO FRONT RANGE...

CITY           SKY/WX    TMP DP  RH WIND       PRES   REMARKS
DENVER INTL AP FAIR      26  14  60 S8        30.20F WCI  18
DMNS CITY PARK NOT AVBL
AURORA         CLEAR     30  13  47 S12       30.21F WCI  21
FRONT RANGE AP FAIR      28  19  67 S9        30.20F WCI  19
ERIE MUNI ARPT FAIR      21  14  73 CALM      30.26S
BOULDER MUN AP FAIR      32  10  40 CALM      30.20S
CENTENNIAL     FAIR      28  10  46 SE6       30.21F WCI  22
BROOMFIELD     FAIR      34   9  35 S5        30.20F WCI  30
FORT COLLINS   FAIR      26  17  68 NE8       30.22S WCI  18
LONGMONT       FAIR      27  14  57 NW5       30.22F WCI  22
$$

COZ041-046-047-076>085-087-088-180700-
...PIKES PEAK/PALMER DIVIDE AND SOUTHERN FOOTHILLS...

CITY           SKY/WX    TMP DP  RH WIND       PRES   REMARKS
COLO. SPRINGS  FAIR      24   5  44 NE5       30.26F WCI  18
A. F. ACADEMY  FAIR      17   5  58 N8        30.24F WCI   7
SCHRIEVER AFB  FAIR      30   6  36 W6        30.26F WCI  24
CHEYENNE MTN   FAIR      33   2  27 CALM      30.19F
ELLICOTT         N/A    N/A N/A N/A CALM      30.24F
FALCON         FAIR      25   4  41 W7        30.25F WCI  17
FORT CARSON    FAIR      25   6  44 N8        30.23F WCI  17
LIMON          FAIR      11   6  81 NW6       30.23F WCI   1
MONUMENT HILL  FAIR      25   9  50 S10       30.24F WCI  15
CANON CITY     FAIR      28   3  34 W12       30.25F WCI  18
WALSENBURG     FAIR      25   9  50 CALM      30.25F
TRINIDAD       FAIR      28   6  39 W15       30.25F WCI  16
$$

COZ042>045-048>051-090-091-180700-
...NORTHEAST COLORADO...

CITY           SKY/WX    TMP DP  RH WIND       PRES   REMARKS
GREELEY ARPT   NOT AVBL
AKRON          FAIR      28  18  66 SW9       30.19F WCI  19
BURLINGTON     FAIR      18   9  68 W8        30.22F WCI   8
WRAY           FAIR      19  14  79 SW5       30.20F WCI  13
YUMA           FAIR      19  12  73 W9        30.19F WCI   9
STERLING       FAIR      21  18  86 SW7       30.20S WCI  13
HOLYOKE        FAIR      21  14  73 W8        30.19F WCI  12
FORT MORGAN    FAIR      24  13  65 W8        30.21F WCI  15
$$

COZ086-089-092>099-180700-
...SOUTHEAST COLORADO...

CITY           SKY/WX    TMP DP  RH WIND       PRES   REMARKS
PUEBLO         FAIR      20   8  60 W7        30.25F WCI  11
LA JUNTA       FAIR      25  12  58 W15       30.24F WCI  13
LAMAR          FAIR      12   3  67 W8        30.24S WCI   0
SPRINGFIELD      N/A     15   9  76 W6        30.23F WCI   6
$$



USA.gov is the U.S. government's official web portal to all federal, state and local government web resources and services.